Dewpoint
69 73 73 72 72 72 72 71 71 71 71 70 69 68 66 65 64 64 64 67 68 66 66 65 65 65 63 62 63 61 61 62 63 64 64 64 63 61 63 64 67 66 66
71 73 73 72 72 72 72 72 72 72 71 70 69 67 65 65 65 64 67 68 65 64 64 63 64 63 62 62 63 62 62 63 63 63 63 63 62 60 61 62 64 65 64
71 73 73 73 73 73 73 72 72 71 70 69 67 66 65 66 66 65 67 67 65 65 64 63 63 62 61 63 63 62 62 62 63 64 65 64 62 62 62 63 61 61 62
72 73 73 73 73 73 72 72 71 70 68 67 66 65 63 67 66 66 68 68 65 65 64 62 62 62 61 62 63 62 62 62 61 61 63 66 66 63 64 65 66 66 64
71 73 73 74 73 72 72 71 69 67 67 66 65 63 67 68 65 66 68 68 66 65 63 62 62 62 61 62 62 63 63 63 64 63 65 65 66 63 65 66 65 66 66
71 71 73 73 73 72 71 70 69 67 66 65 64 64 68 67 66 66 68 66 65 65 62 62 63 63 63 63 63 63 63 63 63 64 65 66 65 66 66 66 65 65 66
70 70 71 73 73 72 71 70 68 66 65 64 63 64 68 67 67 67 65 65 65 64 63 63 64 64 64 63 63 63 63 62 62 63 63 63 64 64 64 64 63 63 63
70 71 71 72 72 72 71 69 68 66 64 62 62 64 68 67 67 66 67 66 65 64 63 63 64 64 63 63 62 62 60 60 60 61 62 62 62 61 62 61 61 60 60
71 71 72 72 72 71 71 70 69 67 65 64 64 64 65 66 66 65 66 66 65 64 63 64 64 64 63 62 61 60 59 60 57 61 63 63 63 60 61 60 59 58 58
70 70 71 71 71 71 70 70 69 68 66 65 65 65 65 65 65 65 65 65 64 64 64 65 64 64 63 62 60 58 57 58 57 61 63 63 63 60 59 58 58 58 57
68 70 70 70 69 69 69 70 69 68 66 65 65 65 64 64 65 65 64 64 65 66 66 65 64 62 61 61 60 58 55 54 59 62 63 64 63 61 59 58 57 56 56
65 67 68 68 68 68 68 69 68 68 66 65 65 64 63 63 64 65 64 64 65 66 66 66 64 62 61 56 55 55 53 49 56 62 63 65 63 61 59 57 57 56 56
64 65 67 67 67 67 68 68 67 67 65 64 64 63 62 62 63 63 62 63 64 66 65 66 63 61 58 53 52 51 49 47 56 62 63 65 63 61 60 58 56 56 55
63 64 65 66 65 66 66 67 67 66 66 64 63 63 61 61 61 61 61 62 63 63 64 65 63 60 57 52 52 50 47 47 50 61 62 64 63 61 60 58 56 55 55
62 63 64 65 65 65 64 65 65 66 66 65 64 63 62 61 60 60 60 60 62 62 63 63 63 61 59 56 50 49 49 47 45 60 61 63 63 61 60 58 56 55 55
62 63 64 63 64 63 63 63 63 64 65 65 66 65 63 62 61 60 60 60 60 61 62 62 62 61 60 59 56 51 48 47 44 53 60 61 62 62 60 58 57 55 54
62 63 63 63 63 62 63 62 61 60 61 62 64 65 65 63 62 61 60 60 60 60 60 61 61 61 61 60 58 53 48 45 43 47 57 60 61 62 61 58 57 56 54
62 62 62 64 63 61 62 62 61 60 60 61 61 63 65 64 63 61 61 61 61 60 59 59 59 59 60 60 58 56 50 45 42 43 54 58 59 60 60 60 58 56 55
60 61 62 63 63 63 62 62 62 62 62 61 61 61 63 64 64 62 61 61 61 60 60 59 58 58 57 57 57 55 52 46 42 42 49 56 58 58 57 58 58 57 56
38 50 57 62 63 63 64 64 64 64 64 65 65 64 62 61 62 62 61 60 60 61 60 60 59 57 57 56 54 52 48 45 42 41 44 53 56 56 56 55 56 56 56
36 37 38 46 46 62 63 63 63 62 63 63 64 64 65 65 63 60 59 59 59 59 60 60 59 58 57 52 50 49 46 43 41 41 42 47 54 55 54 54 53 54 54
40 40 39 38 38 39 47 51 60 62 63 64 64 64 64 64 64 64 63 61 60 59 59 59 60 58 57 54 54 46 50 48 41 40 41 42 45 53 53 52 51 51 51
42 43 43 43 42 40 38 38 40 42 46 56 60 62 63 64 64 64 64 63 61 60 59 59 59 58 58 54 52 54 48 47 44 41 39 39 41 46 51 51 50 50 49
43 45 44 42 42 42 41 39 37 36 37 40 48 48 46 49 56 62 63 63 62 61 60 60 59 58 58 57 52 51 50 45 47 47 40 37 37 40 43 48 49 49 48
44 43 42 43 43 43 42 42 41 40 40 41 41 41 41 43 46 53 57 61 62 61 61 61 60 59 58 58 55 52 51 50 45 44 48 48 42 41 42 43 45 47 46
44 43 43 43 44 45 45 45 44 43 43 43 44 44 46 48 51 52 53 54 59 61 61 60 60 59 58 58 58 56 53 51 48 46 44 46 45 45 44 43 43 44 44
Wind_Speed
12 15 20 18 17 16 16 15 16 15 16 16 14 13 11 10 9 9 9 10 15 15 14 13 12 12 13 14 16 16 15 15 14 13 12 11 12 11 9 12 10 8 10
17 15 21 19 18 17 16 16 15 15 15 15 15 13 10 10 10 10 9 15 15 14 13 12 11 11 12 13 14 15 14 14 13 11 10 9 9 10 9 9 9 9 10
18 16 18 19 18 17 16 15 14 14 15 15 12 12 9 9 10 10 11 14 15 14 12 11 11 11 12 12 12 12 10 8 7 8 7 4 4 8 8 7 5 5 6
19 15 16 18 17 17 16 15 15 15 16 14 12 10 9 9 11 11 10 13 14 13 12 11 11 11 11 11 11 9 7 4 2 3 5 5 3 7 7 9 7 1 5
18 16 16 19 17 16 14 13 15 15 14 11 11 10 6 12 14 12 14 15 13 12 11 11 10 10 11 10 9 7 6 7 8 8 7 10 8 8 8 10 15 16 11
16 15 23 19 17 15 13 15 16 15 12 10 10 10 7 12 15 13 16 15 12 11 11 11 9 9 9 8 8 7 5 10 10 7 6 8 9 13 12 11 12 13 13
16 15 20 21 17 15 15 15 16 15 14 11 10 10 9 11 13 11 12 11 10 10 10 9 8 6 6 6 7 7 8 10 8 6 7 6 6 9 9 7 10 9 8
18 14 16 19 17 16 15 16 16 15 14 14 11 10 9 11 9 10 10 10 8 8 8 8 6 4 3 2 5 5 5 8 7 5 5 5 5 7 6 7 7 6 6
14 15 14 14 16 16 15 15 15 15 15 14 14 13 10 8 8 8 8 7 7 7 7 6 5 3 1 1 2 4 3 8 7 5 6 5 7 6 5 6 6 5 6
12 14 14 14 15 14 13 16 15 14 15 16 13 11 13 13 12 9 6 5 5 5 5 4 3 2 2 2 1 3 4 4 5 5 6 7 7 6 5 5 5 5 5
10 11 12 14 13 15 15 14 16 14 15 15 14 12 11 9 10 9 10 9 7 7 7 5 4 3 3 3 3 2 2 1 4 4 7 7 6 6 6 5 6 6 5
15 14 13 13 12 14 12 11 13 12 11 11 12 12 10 9 8 7 8 8 8 9 8 6 5 3 2 3 3 2 1 2 5 5 7 8 7 6 5 5 6 6 6
17 13 13 14 12 14 12 12 11 11 12 11 12 12 10 8 8 8 7 7 7 8 7 7 6 5 6 5 5 3 3 4 6 8 9 10 9 7 6 6 6 6 6
16 17 13 13 13 13 12 14 13 13 12 13 13 13 12 10 10 10 10 10 10 9 11 10 8 8 7 7 7 7 5 5 7 10 11 13 12 10 9 9 8 7 6
17 16 16 15 15 14 14 12 13 13 13 13 13 13 13 12 13 12 13 12 12 10 11 12 11 11 10 10 10 10 11 9 9 11 11 15 14 12 11 10 10 9 8
17 17 15 18 18 16 16 15 15 13 14 13 13 14 15 14 14 14 13 14 14 13 12 13 14 13 14 11 13 13 14 11 11 12 13 13 15 13 13 12 12 11 11
18 17 19 17 19 19 18 17 14 14 13 14 15 14 16 15 15 14 14 13 15 14 14 12 13 11 12 12 14 14 14 14 12 13 13 14 14 16 15 14 13 13 13
13 16 19 14 15 18 17 17 15 15 14 15 15 14 16 15 16 16 15 15 14 14 14 14 14 14 14 14 15 17 16 15 15 14 13 14 15 14 16 17 16 16 15
17 15 15 15 15 18 18 14 14 16 16 15 14 15 16 17 17 17 16 16 15 14 15 15 14 14 16 16 18 17 17 18 17 14 15 16 17 17 17 18 18 18 17
8 11 13 10 10 10 8 9 9 10 12 12 14 14 16 16 17 17 15 14 12 13 14 13 16 13 16 17 14 16 14 15 13 17 17 15 17 19 18 18 17 16 19
6 5 3 6 3 7 8 9 11 15 12 12 15 15 14 12 13 16 17 15 12 15 16 15 13 18 17 5 4 9 15 15 17 19 15 15 17 16 16 17 16 15 15
8 7 6 5 4 3 2 2 2 3 6 7 6 11 13 13 14 14 15 15 14 15 17 16 16 10 9 10 7 2 9 7 13 19 16 18 18 12 17 18 17 17 16
8 6 5 4 4 4 2 1 1 1 2 3 4 5 5 7 11 12 14 13 13 13 16 17 15 17 17 7 12 9 6 11 4 3 11 15 16 15 13 13 14 15 16
7 6 7 7 6 4 4 2 1 4 6 3 5 6 9 6 7 8 11 13 15 12 14 16 15 17 14 16 6 16 9 3 8 10 3 5 9 16 15 14 14 16 17
9 7 7 8 9 7 6 4 2 0 2 3 4 6 8 9 8 8 8 10 12 12 14 15 13 14 15 13 14 6 13 9 4 9 19 10 5 9 9 11 13 13 15
8 8 8 8 7 7 7 6 4 1 1 2 2 3 4 5 5 9 10 9 8 11 13 13 12 12 14 13 11 12 11 8 7 12 14 13 13 7 4 8 9 10 7
Wind_Direction
175 164 147 149 144 143 141 139 135 134 129 123 113 106 103 102 102 109 112 104 108 102 99 96 95 92 89 88 89 89 89 85 82 78 72 66 82 78 74 55 78 86 102
151 156 150 150 148 148 149 146 143 142 139 131 124 113 113 111 110 116 104 129 106 106 104 101 101 98 94 96 98 95 93 88 80 74 69 65 81 85 80 67 64 75 77
150 150 151 152 149 149 143 146 148 142 134 119 118 111 121 119 115 127 113 122 113 110 105 103 105 104 100 101 100 95 89 82 70 72 60 61 91 89 83 73 72 73 85
148 148 152 148 147 139 145 157 152 138 121 116 118 123 127 131 133 132 119 129 117 112 108 108 108 106 106 108 101 92 82 72 111 69 40 52 128 109 88 69 45 151 144
145 148 152 146 141 145 150 146 132 113 112 124 125 126 142 138 137 135 129 121 122 118 117 120 117 114 116 116 107 94 74 86 109 107 85 68 76 115 93 73 55 60 110
139 151 147 144 147 146 143 135 123 124 126 128 130 139 143 129 138 141 132 126 126 128 130 128 127 125 123 121 110 92 81 123 117 118 109 90 81 94 89 80 75 60 65
138 147 146 143 148 142 136 130 130 133 131 129 138 152 140 123 124 128 123 128 140 138 137 137 138 134 128 120 109 100 100 129 129 131 114 96 100 100 82 63 65 66 52
140 140 142 145 152 149 146 141 141 140 139 139 148 163 149 143 140 143 143 150 152 147 148 150 153 151 140 102 92 83 89 141 133 130 119 109 109 96 81 77 71 67 56
141 143 147 154 157 156 156 154 152 153 150 152 161 167 164 154 155 158 161 162 160 158 160 166 172 181 203 27 58 70 53 157 139 148 152 136 129 107 95 78 74 76 75
146 158 165 163 163 163 165 168 167 167 161 161 169 173 165 167 170 171 171 179 171 168 173 178 198 228 272 310 332 69 60 145 157 172 173 164 155 137 126 108 99 93 88
148 164 171 172 174 166 170 177 178 177 171 167 170 176 172 175 178 177 176 181 177 178 184 189 215 249 288 318 327 21 51 115 199 201 188 195 181 157 150 140 127 121 114
174 182 182 181 181 163 165 177 178 175 175 174 174 181 182 184 187 189 193 194 193 193 193 200 221 246 280 297 302 350 346 322 226 214 211 199 188 181 171 165 155 146 137
184 183 190 189 187 167 165 174 178 176 179 183 186 187 188 189 195 197 205 214 214 213 216 210 216 215 226 241 249 240 219 240 219 216 216 209 201 198 189 181 177 167 157
185 192 189 189 192 183 176 183 186 183 188 192 198 194 190 197 205 207 211 214 216 217 220 216 219 229 240 246 248 260 242 250 232 217 216 212 208 204 196 191 190 185 182
193 198 198 192 200 198 193 193 195 197 194 200 203 203 200 203 210 212 219 220 224 222 222 220 225 231 240 247 248 251 259 242 235 225 225 224 216 207 201 199 198 198 195
200 203 203 205 206 200 203 204 206 199 205 203 210 211 206 208 214 216 225 226 228 225 230 227 230 234 241 244 253 249 255 246 235 233 229 232 227 216 208 210 208 208 207
208 203 203 208 204 202 204 209 210 208 202 207 213 214 210 210 216 218 224 226 228 223 231 234 240 241 247 247 251 252 251 252 240 234 227 227 227 224 216 220 218 217 216
213 207 208 203 197 199 205 211 212 209 206 210 211 212 216 216 214 217 223 228 225 222 222 230 235 240 241 243 248 249 246 247 243 236 228 223 223 223 223 220 221 223 222
230 231 220 204 198 197 204 205 206 213 215 218 216 219 221 218 218 218 222 225 213 218 221 224 233 228 243 246 247 251 249 245 243 243 232 224 222 221 219 223 223 219 218
224 231 241 223 214 209 204 203 212 221 230 226 223 222 225 225 222 219 228 229 215 219 225 220 229 226 236 247 248 255 253 250 249 247 240 229 223 221 219 220 224 223 218
94 132 156 173 171 180 197 207 220 228 230 232 234 238 234 236 234 228 231 229 212 219 232 228 228 236 243 211 247 269 263 250 245 246 243 242 237 227 222 222 222 222 220
112 98 93 91 78 88 169 196 204 232 246 250 245 242 240 240 242 239 241 240 231 225 230 234 227 241 239 193 226 251 288 285 248 242 234 236 239 224 225 221 218 218 217
120 106 84 56 48 53 63 134 154 294 277 272 261 265 267 264 261 248 244 245 242 228 238 235 227 228 249 219 206 224 261 254 301 268 247 239 237 227 229 223 220 218 219
134 114 108 96 81 55 37 70 219 241 252 273 301 316 318 327 307 281 258 246 244 235 239 240 233 229 227 242 222 233 240 205 265 291 272 275 246 240 234 223 216 218 216
136 121 105 96 76 70 78 86 102 190 263 299 309 307 316 321 330 342 322 281 258 239 238 237 232 228 225 235 224 216 232 232 225 254 284 262 270 254 252 245 232 223 216
119 112 106 100 72 65 72 70 79 76 303 308 314 317 339 346 24 14 2 352 292 265 251 248 244 233 229 233 226 220 231 231 226 230 253 272 262 277 262 242 223 226 236